AIB03K LJMB-LIEO

Flight info

Callsign AIB03K
Flight time N/A
Altitude 41000
Route VALLU1S VALLU DCT BARPI/N0401F190 M859 CHI M167 SUKOM Q125 OLBEK
Aircraft A359/H-SDE2E3GHIJ3J4J5LM1ORWXY/LB1D1

Departure

Time 2026-04-17 15:20
Airport Maribor Edvard Rusjan Airport (LJMB)

Arrival

Time N/A
Airport Olbia Costa Smeralda Airport (LIEO)
Time Latitude Longitude Altitude Speed Heading
2026-04-17 15:04 46.47823 15.68324 876 ft 0 kts 325°
2026-04-17 15:15 46.47837 15.68315 876 ft 0 kts 335°
2026-04-17 15:16 46.47840 15.68316 876 ft 0 kts 348°
2026-04-17 15:16 46.47846 15.68321 876 ft 2 kts 26°
2026-04-17 15:16 46.47850 15.68367 876 ft 13 kts 104°
2026-04-17 15:16 46.47793 15.68480 876 ft 9 kts 101°
2026-04-17 15:17 46.47815 15.68584 876 ft 13 kts 59°
2026-04-17 15:17 46.47851 15.68714 874 ft 15 kts 93°
2026-04-17 15:17 46.47767 15.68827 873 ft 19 kts 146°
2026-04-17 15:17 46.47646 15.68944 874 ft 22 kts 145°
2026-04-17 15:18 46.47505 15.69081 876 ft 28 kts 147°
2026-04-17 15:18 46.47320 15.69259 876 ft 33 kts 146°
2026-04-17 15:18 46.47123 15.69442 875 ft 19 kts 161°
2026-04-17 15:18 46.47057 15.69464 875 ft 7 kts 142°
2026-04-17 15:19 46.47060 15.69500 875 ft 2 kts 37°
2026-04-17 15:19 46.47071 15.69496 875 ft 2 kts 341°
2026-04-17 15:19 46.47100 15.69472 875 ft 8 kts 328°
2026-04-17 15:19 46.47102 15.69470 875 ft 0 kts 328°
2026-04-17 15:20 46.47139 15.69436 875 ft 36 kts 328°
2026-04-17 15:20 46.47642 15.68948 874 ft 134 kts 326°
2026-04-17 15:20 46.48574 15.68015 1436 ft 169 kts 326°
2026-04-17 15:20 46.49532 15.66919 2439 ft 190 kts 317°
2026-04-17 15:21 46.50270 15.65134 3262 ft 215 kts 301°
2026-04-17 15:21 46.50967 15.63182 4010 ft 220 kts 300°
2026-04-17 15:21 46.51681 15.61197 4822 ft 224 kts 301°
2026-04-17 15:21 46.52415 15.59177 5601 ft 226 kts 300°
2026-04-17 15:22 46.53152 15.57127 6570 ft 225 kts 297°
2026-04-17 15:22 46.53579 15.54971 7445 ft 228 kts 279°
2026-04-17 15:22 46.53413 15.52658 8321 ft 235 kts 256°
2026-04-17 15:22 46.52972 15.50353 9143 ft 238 kts 258°
2026-04-17 15:23 46.52480 15.48022 9954 ft 244 kts 253°
2026-04-17 15:23 46.51819 15.45735 10729 ft 248 kts 247°
2026-04-17 15:23 46.51085 15.43451 11512 ft 250 kts 251°
2026-04-17 15:23 46.50478 15.41061 12276 ft 254 kts 254°
2026-04-17 15:24 46.49772 15.38681 13024 ft 260 kts 244°
2026-04-17 15:24 46.48544 15.36703 13770 ft 270 kts 218°
2026-04-17 15:24 46.46804 15.35532 14253 ft 288 kts 193°
2026-04-17 15:24 46.44745 15.35176 14548 ft 309 kts 184°
2026-04-17 15:25 46.42528 15.35001 14807 ft 329 kts 184°
2026-04-17 15:25 46.40173 15.34799 15060 ft 348 kts 184°
2026-04-17 15:25 46.37696 15.34557 15311 ft 365 kts 185°
2026-04-17 15:25 46.35116 15.34146 15572 ft 379 kts 191°
2026-04-17 15:26 46.32575 15.33130 15980 ft 385 kts 203°
2026-04-17 15:26 46.30184 15.31383 16553 ft 385 kts 215°
2026-04-17 15:26 46.28081 15.28987 17148 ft 385 kts 227°
2026-04-17 15:26 46.26359 15.26057 17746 ft 383 kts 239°
2026-04-17 15:27 46.24927 15.22790 18355 ft 384 kts 243°
2026-04-17 15:27 46.23614 15.19417 18858 ft 387 kts 245°
2026-04-17 15:27 46.22347 15.15978 19370 ft 389 kts 245°
2026-04-17 15:27 46.21085 15.12506 19877 ft 392 kts 246°
2026-04-17 15:28 46.19806 15.09008 20378 ft 395 kts 245°
2026-04-17 15:28 46.18504 15.05495 20907 ft 398 kts 245°
2026-04-17 15:28 46.17178 15.01969 21381 ft 401 kts 245°
2026-04-17 15:28 46.15835 14.98430 21900 ft 403 kts 245°
2026-04-17 15:29 46.14473 14.94873 22386 ft 406 kts 245°
2026-04-17 15:29 46.13098 14.91280 22867 ft 409 kts 245°
2026-04-17 15:29 46.11734 14.87717 23325 ft 413 kts 245°
2026-04-17 15:29 46.10343 14.84084 23766 ft 416 kts 245°
2026-04-17 15:30 46.08937 14.80419 24154 ft 419 kts 245°
2026-04-17 15:30 46.07522 14.76736 24586 ft 421 kts 245°
2026-04-17 15:30 46.06101 14.73041 25031 ft 423 kts 245°
2026-04-17 15:30 46.04672 14.69329 25455 ft 425 kts 245°
2026-04-17 15:31 46.03715 14.66850 25745 ft 427 kts 245°
2026-04-17 15:31 46.02266 14.63098 26196 ft 430 kts 245°
2026-04-17 15:31 46.00806 14.59325 26686 ft 433 kts 245°
2026-04-17 15:31 45.99338 14.55531 27173 ft 435 kts 245°
2026-04-17 15:32 45.97374 14.50465 27874 ft 439 kts 245°
2026-04-17 15:32 45.96367 14.47868 28242 ft 441 kts 245°
2026-04-17 15:32 45.94860 14.43990 28807 ft 445 kts 245°
2026-04-17 15:32 45.93364 14.40147 29331 ft 448 kts 245°
2026-04-17 15:33 45.91833 14.36220 29912 ft 451 kts 245°
2026-04-17 15:33 45.90291 14.32270 30446 ft 454 kts 245°
2026-04-17 15:33 45.88740 14.28301 30962 ft 456 kts 245°
2026-04-17 15:33 45.87177 14.24310 31429 ft 460 kts 245°
2026-04-17 15:34 45.85603 14.20294 31899 ft 463 kts 245°
2026-04-17 15:34 45.84016 14.16249 32358 ft 467 kts 245°
2026-04-17 15:34 45.82422 14.12194 32828 ft 469 kts 245°
2026-04-17 15:34 45.80810 14.08101 33224 ft 473 kts 245°
2026-04-17 15:35 45.79205 14.04033 33628 ft 476 kts 245°
2026-04-17 15:35 45.77569 13.99892 34080 ft 478 kts 245°
2026-04-17 15:35 45.75920 13.95726 34431 ft 481 kts 245°
2026-04-17 15:35 45.74267 13.91553 34759 ft 484 kts 245°
2026-04-17 15:36 45.72602 13.87357 35150 ft 485 kts 245°
2026-04-17 15:36 45.70935 13.83164 35634 ft 483 kts 244°
2026-04-17 15:36 45.69271 13.78990 36140 ft 482 kts 244°
2026-04-17 15:36 45.67611 13.74828 36650 ft 481 kts 244°
2026-04-17 15:37 45.65950 13.70671 37124 ft 480 kts 244°
2026-04-17 15:37 45.64292 13.66528 37584 ft 480 kts 244°
2026-04-17 15:37 45.62635 13.62398 38049 ft 479 kts 244°
2026-04-17 15:37 45.60983 13.58277 38525 ft 478 kts 243°
2026-04-17 15:38 45.59326 13.54148 38943 ft 477 kts 243°
2026-04-17 15:38 45.57677 13.50036 39243 ft 477 kts 243°
2026-04-17 15:38 45.56027 13.45919 39518 ft 478 kts 243°
2026-04-17 15:38 45.54392 13.41839 39773 ft 480 kts 243°
2026-04-17 15:39 45.52728 13.37708 40079 ft 480 kts 243°
2026-04-17 15:39 45.51049 13.33579 40374 ft 480 kts 243°
2026-04-17 15:39 45.49369 13.29466 40694 ft 480 kts 243°
2026-04-17 15:39 45.47687 13.25354 40979 ft 481 kts 243°
2026-04-17 15:40 45.45988 13.21224 41079 ft 482 kts 243°
2026-04-17 15:40 45.42586 13.13013 41091 ft 481 kts 242°
2026-04-17 15:41 45.39173 13.04796 41088 ft 482 kts 242°
2026-04-17 15:41 45.35765 12.96598 41089 ft 482 kts 242°
2026-04-17 15:42 45.32371 12.88454 41090 ft 482 kts 242°
2026-04-17 15:42 45.28952 12.80255 41091 ft 482 kts 242°
2026-04-17 15:43 45.25543 12.72078 41081 ft 481 kts 242°
2026-04-17 15:43 45.22127 12.63884 41093 ft 482 kts 242°
2026-04-17 15:44 45.18707 12.55702 41093 ft 482 kts 242°
2026-04-17 15:44 45.15279 12.47530 41097 ft 482 kts 242°
2026-04-17 15:45 45.11863 12.39407 41097 ft 482 kts 242°
2026-04-17 15:45 45.08360 12.31290 41091 ft 484 kts 238°
2026-04-17 15:46 45.03816 12.24229 41097 ft 488 kts 225°
2026-04-17 15:46 44.98657 12.17923 41097 ft 490 kts 223°
2026-04-17 15:47 44.93410 12.11770 41098 ft 490 kts 223°
2026-04-17 15:47 44.88168 12.05615 41102 ft 490 kts 223°
2026-04-17 15:48 44.82939 11.99454 41102 ft 490 kts 223°
2026-04-17 15:48 44.77742 11.93329 41103 ft 490 kts 223°
2026-04-17 15:49 44.72505 11.87167 41102 ft 490 kts 223°
2026-04-17 15:49 44.67263 11.81015 41108 ft 490 kts 223°
2026-04-17 15:50 44.62048 11.74911 41099 ft 490 kts 223°
2026-04-17 15:50 44.56786 11.68831 41091 ft 491 kts 219°
2026-04-17 15:51 44.50889 11.63877 41093 ft 495 kts 210°
2026-04-17 15:51 44.44742 11.59501 41089 ft 496 kts 209°
2026-04-17 15:52 44.38553 11.55223 41089 ft 496 kts 208°
2026-04-17 15:52 44.32361 11.50935 41094 ft 496 kts 209°
2026-04-17 15:53 44.26184 11.46640 41106 ft 496 kts 209°
2026-04-17 15:53 44.20002 11.42343 41105 ft 496 kts 209°
2026-04-17 15:54 44.13857 11.38080 41104 ft 496 kts 209°
2026-04-17 15:54 44.07714 11.33703 41097 ft 496 kts 210°
2026-04-17 15:55 44.01586 11.29272 41095 ft 496 kts 210°
2026-04-17 15:55 43.95492 11.24902 41059 ft 496 kts 210°
2026-04-17 15:56 43.89355 11.20529 41053 ft 496 kts 210°
2026-04-17 15:56 43.83193 11.16152 41048 ft 496 kts 209°
2026-04-17 15:57 43.77051 11.11799 41047 ft 496 kts 209°
2026-04-17 15:57 43.70896 11.07446 41051 ft 496 kts 209°
2026-04-17 15:58 43.64791 11.03138 41052 ft 496 kts 209°
2026-04-17 15:58 43.58710 10.98860 41027 ft 482 kts 209°
2026-04-17 15:59 43.52578 10.94798 41049 ft 498 kts 200°
2026-04-17 15:59 43.49159 10.93878 41049 ft 503 kts 184°
2026-04-17 15:59 43.45699 10.94164 40836 ft 496 kts 169°
2026-04-17 15:59 43.42400 10.95549 40107 ft 497 kts 157°
2026-04-17 16:00 43.39241 10.97519 39305 ft 500 kts 154°
2026-04-17 16:00 43.36107 10.99611 38545 ft 501 kts 154°
2026-04-17 16:00 43.32967 11.01726 37657 ft 502 kts 154°
2026-04-17 16:00 43.29870 11.03817 36770 ft 503 kts 154°
2026-04-17 16:01 43.26721 11.05938 35862 ft 504 kts 154°
2026-04-17 16:01 43.23562 11.08061 34952 ft 506 kts 154°
2026-04-17 16:01 43.20391 11.10192 34088 ft 508 kts 154°
2026-04-17 16:01 43.17202 11.12337 33360 ft 514 kts 154°
2026-04-17 16:02 43.13965 11.14515 33065 ft 519 kts 154°
2026-04-17 16:02 43.07505 11.18861 33037 ft 520 kts 154°
2026-04-17 16:03 43.01005 11.23208 33039 ft 519 kts 154°
2026-04-17 16:03 42.94510 11.27541 33034 ft 519 kts 154°
2026-04-17 16:04 42.88018 11.31859 33039 ft 519 kts 154°
2026-04-17 16:04 42.84786 11.33988 32716 ft 510 kts 154°
2026-04-17 16:04 42.81599 11.36078 31857 ft 507 kts 154°
2026-04-17 16:04 42.78427 11.38166 31065 ft 505 kts 154°
2026-04-17 16:05 42.75321 11.40218 30389 ft 500 kts 154°
2026-04-17 16:05 42.72206 11.42286 29666 ft 495 kts 154°
2026-04-17 16:05 42.69124 11.44332 28945 ft 490 kts 154°
2026-04-17 16:05 42.66077 11.46349 28259 ft 484 kts 154°
2026-04-17 16:06 42.63054 11.48340 27569 ft 479 kts 154°
2026-04-17 16:06 42.60069 11.50296 26922 ft 473 kts 154°
2026-04-17 16:06 42.57119 11.52221 26297 ft 468 kts 154°
2026-04-17 16:06 42.54197 11.54120 25661 ft 463 kts 154°
2026-04-17 16:07 42.51299 11.55994 25013 ft 459 kts 154°
2026-04-17 16:07 42.48426 11.57841 24367 ft 454 kts 154°
2026-04-17 16:07 42.45586 11.59658 23766 ft 449 kts 154°
2026-04-17 16:07 42.42807 11.61431 23058 ft 444 kts 154°
2026-04-17 16:08 42.40015 11.63208 22313 ft 440 kts 154°
2026-04-17 16:08 42.37257 11.64968 21580 ft 436 kts 154°
2026-04-17 16:08 42.34531 11.66714 20869 ft 432 kts 154°
2026-04-17 16:08 42.31830 11.68450 20166 ft 428 kts 154°
2026-04-17 16:09 42.29147 11.70173 19458 ft 424 kts 154°
2026-04-17 16:09 42.26521 11.71864 18798 ft 421 kts 154°
2026-04-17 16:09 42.23862 11.73581 18066 ft 412 kts 154°
2026-04-17 16:09 42.21365 11.75329 16759 ft 400 kts 146°
2026-04-17 16:10 42.19289 11.77696 15389 ft 393 kts 133°
2026-04-17 16:10 42.17517 11.80443 14178 ft 383 kts 126°
2026-04-17 16:10 42.15967 11.83321 12902 ft 375 kts 124°
2026-04-17 16:10 42.14473 11.86158 11619 ft 367 kts 123°
2026-04-17 16:11 42.13013 11.88913 10709 ft 352 kts 124°
2026-04-17 16:11 42.11636 11.91486 10261 ft 324 kts 123°
2026-04-17 16:11 42.10358 11.93841 9811 ft 301 kts 124°
2026-04-17 16:11 42.09171 11.96102 8995 ft 292 kts 120°
2026-04-17 16:12 42.08197 11.98465 8150 ft 286 kts 114°
2026-04-17 16:12 42.07308 12.00840 7365 ft 282 kts 114°
2026-04-17 16:12 42.06661 12.03298 6512 ft 277 kts 98°
2026-04-17 16:12 42.06242 12.05821 5633 ft 276 kts 103°
2026-04-17 16:13 42.05712 12.08290 4846 ft 272 kts 103°
2026-04-17 16:13 42.05172 12.10693 3982 ft 270 kts 103°
2026-04-17 16:13 42.04618 12.13092 3261 ft 266 kts 104°
2026-04-17 16:13 42.04061 12.15468 2865 ft 264 kts 103°
2026-04-17 16:14 42.01809 12.18878 2493 ft 237 kts 151°
2026-04-17 16:14 42.00326 12.19548 2528 ft 211 kts 162°
2026-04-17 16:14 41.99003 12.20048 2535 ft 185 kts 159°
2026-04-17 16:15 41.98222 12.20368 2522 ft 169 kts 159°
2026-04-17 16:15 41.97145 12.20828 2515 ft 159 kts 159°
2026-04-17 16:15 41.96100 12.21291 2372 ft 158 kts 159°
2026-04-17 16:15 41.95052 12.21749 2163 ft 158 kts 161°
2026-04-17 16:16 41.94007 12.22187 1946 ft 157 kts 162°
2026-04-17 16:16 41.92967 12.22623 1720 ft 156 kts 164°
2026-04-17 16:16 41.91931 12.23056 1545 ft 155 kts 161°
2026-04-17 16:16 41.90916 12.23501 1383 ft 156 kts 161°
2026-04-17 16:17 41.89900 12.23970 1063 ft 153 kts 164°
2026-04-17 16:17 41.88884 12.24386 888 ft 152 kts 167°
2026-04-17 16:17 41.87886 12.24772 715 ft 147 kts 165°
2026-04-17 16:17 41.86911 12.25179 527 ft 146 kts 166°
2026-04-17 16:18 41.85941 12.25582 329 ft 144 kts 158°
2026-04-17 16:18 41.84995 12.25992 125 ft 142 kts 168°
2026-04-17 16:18 41.84047 12.26379 26 ft 139 kts 161°
2026-04-17 16:18 41.83210 12.26731 20 ft 111 kts 165°
2026-04-17 16:19 41.82592 12.26988 24 ft 75 kts 163°
2026-04-17 16:19 41.82162 12.27169 17 ft 56 kts 162°
2026-04-17 16:19 41.81840 12.27307 21 ft 40 kts 161°
2026-04-17 16:19 41.81607 12.27402 24 ft 33 kts 165°
2026-04-17 16:20 41.81400 12.27477 20 ft 26 kts 159°
2026-04-17 16:20 41.81244 12.27497 23 ft 20 kts 192°
2026-04-17 16:20 41.81152 12.27392 22 ft 17 kts 243°
2026-04-17 16:20 41.81077 12.27316 22 ft 12 kts 187°
2026-04-17 16:21 41.81003 12.27331 20 ft 9 kts 161°
2026-04-17 16:21 41.80946 12.27349 23 ft 8 kts 172°
2026-04-17 16:21 41.80905 12.27349 21 ft 0 kts 184°
2026-04-17 16:25 41.80863 12.27341 21 ft 9 kts 189°
2026-04-17 16:25 41.80796 12.27326 22 ft 10 kts 189°
2026-04-17 16:25 41.80729 12.27306 23 ft 9 kts 196°
2026-04-17 16:25 41.80669 12.27249 22 ft 13 kts 233°
2026-04-17 16:26 41.80626 12.27122 22 ft 16 kts 253°
2026-04-17 16:26 41.80592 12.26993 20 ft 13 kts 249°
2026-04-17 16:26 41.80562 12.26886 22 ft 12 kts 249°
2026-04-17 16:26 41.80532 12.26774 24 ft 14 kts 250°
2026-04-17 16:27 41.80496 12.26644 22 ft 15 kts 250°
2026-04-17 16:27 41.80464 12.26530 23 ft 13 kts 250°
2026-04-17 16:27 41.80433 12.26418 22 ft 13 kts 243°
2026-04-17 16:27 41.80365 12.26367 22 ft 10 kts 173°
2026-04-17 16:28 41.80298 12.26393 23 ft 10 kts 160°
2026-04-17 16:28 41.80223 12.26409 25 ft 11 kts 190°
2026-04-17 16:28 41.80170 12.26381 25 ft 0 kts 204°
2026-04-17 16:29 41.80164 12.26383 25 ft 1 kts 180°
2026-04-17 16:29 41.80133 12.26377 26 ft 5 kts 218°
2026-04-17 16:29 41.80121 12.26286 25 ft 12 kts 284°
2026-04-17 16:29 41.80105 12.26231 27 ft 4 kts 226°
2026-04-17 16:30 41.80092 12.26221 27 ft 1 kts 206°
2026-04-17 16:30 41.80071 12.26208 29 ft 0 kts 205°